• In Portugal
  • List of Countries
  • For 7 days
  • Water Temperature
  • Satellite Maps
  • Weather Map
  • Weather Widgets
  • user-avatar
    Login

    Hourly Weather Akaba

    Today, 25 September, Monday

    Time Temperature Precipitation Wind Pressure Humidity
    00:00 +27°C° 0 mm 2 mps 749 mmHg 57%
    01:00 +27°C° 0 mm 2 mps 749 mmHg 59%
    02:00 +26°C° 0 mm 2 mps 749 mmHg 62%
    03:00 +26°C° 0 mm 2 mps 749 mmHg 63%
    04:00 +26°C° 0 mm 2 mps 749 mmHg 64%
    05:00 +25°C° 0 mm 2 mps 749 mmHg 66%
    06:00 +26°C° 0 mm 2 mps 749 mmHg 61%
    07:00 +27°C° 0 mm 2 mps 749 mmHg 56%
    08:00 +29°C° 0 mm 2 mps 749 mmHg 51%
    09:00 +30°C° 0 mm 3 mps 749 mmHg 45%
    10:00 +33°C° 0 mm 3 mps 749 mmHg 39%
    11:00 +35°C° 0 mm 3 mps 749 mmHg 32%
    12:00 +36°C° 0 mm 3 mps 748 mmHg 30%
    13:00 +37°C° 0 mm 3 mps 748 mmHg 27%
    14:00 +38°C° 0 mm 3 mps 747 mmHg 25%
    15:00 +37°C° 0 mm 3 mps 747 mmHg 26%
    16:00 +37°C° 0 mm 4 mps 747 mmHg 27%
    17:00 +36°C° 0 mm 4 mps 747 mmHg 27%
    18:00 +35°C° 0 mm 4 mps 747 mmHg 32%
    19:00 +34°C° 0 mm 4 mps 748 mmHg 36%
    20:00 +33°C° 0 mm 3 mps 748 mmHg 40%
    21:00 +31°C° 0 mm 3 mps 748 mmHg 45%
    22:00 +30°C° 0 mm 3 mps 749 mmHg 50%
    23:00 +29°C° 0 mm 2 mps 749 mmHg 55%

    Tomorrow, 26 September, Tuesday

    Time Temperature Precipitation Wind Pressure Humidity
    00:00 +28°C° 0 mm 2 mps 749 mmHg 59%
    01:00 +28°C° 0 mm 2 mps 749 mmHg 62%
    02:00 +27°C° 0 mm 2 mps 749 mmHg 65%
    03:00 +27°C° 0 mm 2 mps 749 mmHg 67%
    04:00 +26°C° 0 mm 2 mps 748 mmHg 68%
    05:00 +26°C° 0 mm 2 mps 748 mmHg 69%
    06:00 +27°C° 0 mm 2 mps 749 mmHg 64%
    07:00 +28°C° 0 mm 2 mps 749 mmHg 59%
    08:00 +29°C° 0 mm 2 mps 749 mmHg 54%
    09:00 +31°C° 0 mm 3 mps 749 mmHg 48%
    10:00 +33°C° 0 mm 3 mps 749 mmHg 41%
    11:00 +35°C° 0 mm 3 mps 749 mmHg 35%
    12:00 +36°C° 0 mm 4 mps 748 mmHg 32%
    13:00 +36°C° 0 mm 4 mps 748 mmHg 29%
    14:00 +37°C° 0 mm 5 mps 747 mmHg 27%
    15:00 +36°C° 0 mm 5 mps 747 mmHg 28%
    16:00 +36°C° 0 mm 5 mps 747 mmHg 29%
    17:00 +35°C° 0 mm 6 mps 747 mmHg 30%
    18:00 +33°C° 0 mm 5 mps 748 mmHg 35%
    19:00 +32°C° 0 mm 5 mps 749 mmHg 40%
    20:00 +30°C° 0 mm 4 mps 750 mmHg 45%
    21:00 +29°C° 0 mm 4 mps 750 mmHg 50%
    22:00 +28°C° 0 mm 3 mps 750 mmHg 54%
    23:00 +28°C° 0 mm 3 mps 750 mmHg 58%

    Day after tomorrow, 27 September, Wednesday

    Time Temperature Precipitation Wind Pressure Humidity
    00:00 +27°C° 0 mm 2 mps 750 mmHg 61%
    01:00 +27°C° 0 mm 2 mps 750 mmHg 64%
    02:00 +26°C° 0 mm 2 mps 750 mmHg 67%
    03:00 +26°C° 0 mm 2 mps 750 mmHg 69%
    04:00 +25°C° 0 mm 2 mps 750 mmHg 71%
    05:00 +25°C° 0 mm 2 mps 750 mmHg 73%
    06:00 +26°C° 0 mm 2 mps 751 mmHg 68%
    07:00 +27°C° 0 mm 2 mps 751 mmHg 63%
    08:00 +28°C° 0 mm 3 mps 751 mmHg 59%
    09:00 +29°C° 0 mm 3 mps 751 mmHg 51%
    10:00 +31°C° 0 mm 3 mps 751 mmHg 43%
    11:00 +33°C° 0 mm 3 mps 750 mmHg 36%
    12:00 +34°C° 0 mm 4 mps 750 mmHg 33%
    13:00 +35°C° 0 mm 4 mps 749 mmHg 30%
    14:00 +36°C° 0 mm 4 mps 749 mmHg 28%
    15:00 +36°C° 0 mm 4 mps 748 mmHg 29%
    16:00 +35°C° 0 mm 4 mps 748 mmHg 30%
    17:00 +35°C° 0 mm 5 mps 748 mmHg 31%
    18:00 +33°C° 0 mm 4 mps 749 mmHg 35%
    19:00 +32°C° 0 mm 4 mps 749 mmHg 40%
    20:00 +30°C° 0 mm 4 mps 750 mmHg 45%
    21:00 +29°C° 0 mm 3 mps 750 mmHg 50%
    22:00 +28°C° 0 mm 3 mps 750 mmHg 55%
    23:00 +28°C° 0 mm 3 mps 750 mmHg 60%

    28 September, Thursday

    Time Temperature Precipitation Wind Pressure Humidity
    00:00 +27°C° 0 mm 3 mps 750 mmHg 63%
    01:00 +27°C° 0 mm 2 mps 749 mmHg 65%
    02:00 +26°C° 0 mm 2 mps 749 mmHg 68%
    03:00 +26°C° 0 mm 2 mps 749 mmHg 70%
    04:00 +25°C° 0 mm 2 mps 749 mmHg 72%
    05:00 +25°C° 0 mm 2 mps 749 mmHg 74%
    06:00 +26°C° 0 mm 2 mps 750 mmHg 69%
    07:00 +27°C° 0 mm 3 mps 750 mmHg 63%
    08:00 +27°C° 0 mm 3 mps 750 mmHg 58%
    09:00 +29°C° 0 mm 3 mps 750 mmHg 51%
    10:00 +31°C° 0 mm 3 mps 749 mmHg 44%
    11:00 +33°C° 0 mm 3 mps 749 mmHg 38%
    12:00 +34°C° 0 mm 3 mps 748 mmHg 35%
    13:00 +35°C° 0 mm 3 mps 748 mmHg 32%
    14:00 +36°C° 0 mm 4 mps 747 mmHg 29%
    15:00 +35°C° 0 mm 4 mps 747 mmHg 31%
    16:00 +35°C° 0 mm 4 mps 747 mmHg 32%
    17:00 +34°C° 0 mm 4 mps 747 mmHg 33%
    18:00 +33°C° 0 mm 4 mps 747 mmHg 38%
    19:00 +32°C° 0 mm 4 mps 748 mmHg 43%
    20:00 +30°C° 0 mm 4 mps 748 mmHg 48%
    21:00 +29°C° 0 mm 4 mps 748 mmHg 53%
    22:00 +28°C° 0 mm 3 mps 748 mmHg 58%
    23:00 +27°C° 0 mm 3 mps 748 mmHg 63%

    29 September, Friday

    Time Temperature Precipitation Wind Pressure Humidity
    00:00 +27°C° 0 mm 3 mps 748 mmHg 65%
    01:00 +26°C° 0 mm 3 mps 748 mmHg 68%
    02:00 +25°C° 0 mm 3 mps 748 mmHg 71%
    03:00 +25°C° 0 mm 3 mps 748 mmHg 73%
    04:00 +25°C° 0 mm 2 mps 748 mmHg 76%
    05:00 +24°C° 0 mm 2 mps 749 mmHg 78%
    06:00 +25°C° 0 mm 2 mps 749 mmHg 74%
    07:00 +25°C° 0 mm 3 mps 749 mmHg 71%
    08:00 +26°C° 0 mm 3 mps 749 mmHg 67%
    09:00 +27°C° 0 mm 3 mps 748 mmHg 60%
    10:00 +29°C° 0 mm 3 mps 748 mmHg 52%
    11:00 +30°C° 0 mm 3 mps 748 mmHg 45%
    12:00 +31°C° 0 mm 3 mps 747 mmHg 42%
    13:00 +33°C° 0 mm 3 mps 747 mmHg 38%
    14:00 +34°C° 0 mm 4 mps 746 mmHg 35%
    15:00 +33°C° 0 mm 4 mps 746 mmHg 35%
    16:00 +33°C° 0 mm 4 mps 746 mmHg 35%
    17:00 +32°C° 0 mm 4 mps 747 mmHg 35%
    18:00 +30°C° 0 mm 4 mps 747 mmHg 38%
    19:00 +29°C° 0 mm 4 mps 747 mmHg 41%
    20:00 +29°C° 0 mm 4 mps 748 mmHg 44%
    21:00 +28°C° 0 mm 4 mps 748 mmHg 49%
    22:00 +27°C° 0 mm 3 mps 748 mmHg 53%
    23:00 +26°C° 0 mm 3 mps 748 mmHg 57%

    30 September, Saturday

    Time Temperature Precipitation Wind Pressure Humidity
    00:00 +26°C° 0 mm 3 mps 748 mmHg 60%
    01:00 +25°C° 0 mm 3 mps 748 mmHg 62%
    02:00 +25°C° 0 mm 2 mps 748 mmHg 64%
    03:00 +24°C° 0 mm 2 mps 748 mmHg 65%
    04:00 +24°C° 0 mm 2 mps 749 mmHg 66%
    05:00 +23°C° 0 mm 2 mps 749 mmHg 68%
    06:00 +24°C° 0 mm 2 mps 749 mmHg 63%
    07:00 +25°C° 0 mm 2 mps 749 mmHg 59%
    08:00 +26°C° 0 mm 2 mps 749 mmHg 55%
    09:00 +27°C° 0 mm 2 mps 749 mmHg 48%
    10:00 +29°C° 0 mm 2 mps 749 mmHg 42%
    11:00 +30°C° 0 mm 2 mps 748 mmHg 35%
    12:00 +31°C° 0 mm 2 mps 748 mmHg 32%
    13:00 +33°C° 0 mm 3 mps 748 mmHg 29%
    14:00 +34°C° 0 mm 3 mps 747 mmHg 26%
    15:00 +34°C° 0 mm 3 mps 747 mmHg 26%
    16:00 +33°C° 0 mm 3 mps 747 mmHg 27%
    17:00 +33°C° 0 mm 4 mps 747 mmHg 27%
    18:00 +31°C° 0 mm 3 mps 748 mmHg 30%
    19:00 +30°C° 0 mm 3 mps 748 mmHg 33%
    20:00 +29°C° 0 mm 3 mps 749 mmHg 36%
    21:00 +28°C° 0 mm 3 mps 749 mmHg 41%
    22:00 +28°C° 0 mm 3 mps 749 mmHg 45%
    23:00 +27°C° 0 mm 3 mps 749 mmHg 50%
    Show more